Overview Statistics Trail Chart Weather Telemetry Raw packets
 

This is the latest recevied weather packets stored in our database for station/object KC1BRV. If no packets are shown the sender has not sent any weather packets the latest 10 day(s).

<< 79 80 81 82 83 84 85 >>
Time Temp. Humidity Pressure Rain* Wind** Luminosity Snow
1788042272 22.22° C 58% 1022 hPa 0 mm - 20 W/m² -
1788041968 22.78° C 56% 1022.2 hPa 0 mm - 21 W/m² -
1788041663 22.78° C 58% 1022 hPa 0 mm - 22 W/m² -
1788041358 22.78° C 56% 1022.3 hPa 0 mm - 23 W/m² -
1788041058 22.78° C 54% 1022.2 hPa 0 mm - 25 W/m² -
1788040756 23.33° C 54% 1022.3 hPa 0 mm - 26 W/m² -
1788040450 23.33° C 54% 1022.4 hPa 0 mm - 26 W/m² -
1788040148 23.33° C 54% 1022.3 hPa 0 mm - 26 W/m² -
1788039847 23.33° C 52% 1022.4 hPa 0 mm - 27 W/m² -
1788039541 23.33° C 52% 1022.5 hPa 0 mm - 28 W/m² -
1788039237 23.33° C 51% 1022.3 hPa 0 mm - 29 W/m² -
1788038932 23.33° C 53% 1022.3 hPa 0 mm - 31 W/m² -
1788038627 23.89° C 54% 1022.2 hPa 0 mm - 34 W/m² -
1788038326 23.89° C 53% 1022.2 hPa 0 mm - 37 W/m² -
1788038022 23.89° C 53% 1022.4 hPa 0 mm - 39 W/m² -
1788037716 23.89° C 51% 1022.4 hPa 0 mm - 42 W/m² -
1788037411 23.89° C 51% 1022.5 hPa 0 mm - 42 W/m² -
1788037110 23.89° C 54% 1022.3 hPa 0 mm - 40 W/m² -
1788036805 23.89° C 55% 1022.5 hPa 0 mm - 44 W/m² -
1788036503 23.89° C 51% 1022.5 hPa 0 mm - 49 W/m² -
1788036198 23.89° C 52% 1022.6 hPa 0 mm - 46 W/m² -
1788035898 23.89° C 51% 1022.4 hPa 0 mm - 40 W/m² -
1788035597 23.89° C 51% 1022.5 hPa 0 mm - 40 W/m² -
1788035292 23.89° C 50% 1022.5 hPa 0 mm - 39 W/m² -
1788034988 24.44° C 49% 1022.5 hPa 0 mm - 42 W/m² -

* Rain latest hour (hover to see other rain measurements)
** Current wind speed in m/s (hover to see current wind gust speed)